Location: Unspecified
(0.0000°N, 0.0000°E)
Time: 19:48:53
(UTC+00:00)

S80/T - Pass Details

Date: 15 June 2023
Orbit: 1308 x 1320 km, 66.1° (Epoch: 24 September)

Event Time Altitude Azimuth Distance (km) Brightness Sun altitude
Rises 21:46:53 0° 333° (NNW) 4,302 ? -50.0°
Reaches altitude 10° 21:49:43 10° 330° (NNW) 3,334 ? -50.6°
Enters shadow 21:52:16 23° 325° (NW) 2,509 ? -51.1°
